When you browse on this site, cookies collect data to enhance your experience and personalize the content and advertising you see.
Visit our Privacy Policy to learn more. By continuing to use the site, you agree to this use of cookies and data.
  • In Netherlands
  • List of Countries
  • For 7 days
  • Water Temperature
  • Weather Map
  • Weather Widgets
  • user-avatar
    Login

    Hourly Weather Biskira

    Today, 22 February, Saturday

    Time Temperature Precipitation Wind Pressure Humidity
    00:00 +16°C° 0 mm 1 mps 760 mmHg 40%
    01:00 +16°C° 0 mm 1 mps 760 mmHg 40%
    02:00 +15°C° 0 mm 1 mps 760 mmHg 41%
    03:00 +15°C° 0 mm 1 mps 760 mmHg 41%
    04:00 +14°C° 0 mm 1 mps 760 mmHg 40%
    05:00 +14°C° 0 mm 1 mps 761 mmHg 40%
    06:00 +14°C° 0 mm 2 mps 761 mmHg 38%
    07:00 +15°C° 0 mm 1 mps 762 mmHg 34%
    08:00 +18°C° 0 mm 1 mps 762 mmHg 30%
    09:00 +20°C° 0 mm 1 mps 762 mmHg 26%
    10:00 +21°C° 0 mm 1 mps 762 mmHg 24%
    11:00 +22°C° 0 mm 1 mps 762 mmHg 23%
    12:00 +23°C° 0 mm 1 mps 762 mmHg 20%
    13:00 +24°C° 0 mm 1 mps 762 mmHg 18%
    14:00 +24°C° 0 mm 2 mps 761 mmHg 16%
    15:00 +25°C° 0 mm 2 mps 761 mmHg 13%
    16:00 +24°C° 0 mm 2 mps 761 mmHg 16%
    17:00 +21°C° 0 mm 2 mps 762 mmHg 19%
    18:00 +20°C° 0 mm 2 mps 762 mmHg 21%
    19:00 +19°C° 0 mm 2 mps 762 mmHg 23%
    20:00 +19°C° 0 mm 2 mps 763 mmHg 26%
    21:00 +18°C° 0 mm 3 mps 763 mmHg 28%
    22:00 +17°C° 0 mm 3 mps 763 mmHg 31%
    23:00 +17°C° 0 mm 3 mps 763 mmHg 34%

    Tomorrow, 23 February, Sunday

    Time Temperature Precipitation Wind Pressure Humidity
    00:00 +16°C° 0 mm 3 mps 764 mmHg 37%
    01:00 +16°C° 0 mm 3 mps 764 mmHg 41%
    02:00 +14°C° 0 mm 3 mps 764 mmHg 44%
    03:00 +13°C° 0 mm 3 mps 764 mmHg 48%
    04:00 +13°C° 0 mm 3 mps 764 mmHg 51%
    05:00 +12°C° 0 mm 3 mps 764 mmHg 54%
    06:00 +12°C° 0 mm 3 mps 764 mmHg 57%
    07:00 +13°C° 0 mm 3 mps 765 mmHg 56%
    08:00 +15°C° 0 mm 2 mps 765 mmHg 55%
    09:00 +16°C° 0 mm 2 mps 765 mmHg 54%
    10:00 +17°C° 0 mm 2 mps 765 mmHg 50%
    11:00 +18°C° 0 mm 2 mps 765 mmHg 47%
    12:00 +18°C° 0 mm 2 mps 765 mmHg 43%
    13:00 +19°C° 0 mm 2 mps 764 mmHg 41%
    14:00 +20°C° 0 mm 2 mps 763 mmHg 38%
    15:00 +20°C° 0 mm 2 mps 763 mmHg 35%
    16:00 +20°C° 0 mm 2 mps 763 mmHg 37%
    17:00 +19°C° 0 mm 2 mps 763 mmHg 38%
    18:00 +18°C° 0 mm 2 mps 763 mmHg 40%
    19:00 +19°C° 0 mm 1 mps 763 mmHg 41%
    20:00 +18°C° 0 mm 1 mps 763 mmHg 42%
    21:00 +18°C° 0 mm 1 mps 763 mmHg 44%
    22:00 +16°C° 0 mm 1 mps 763 mmHg 45%
    23:00 +15°C° 0 mm 1 mps 763 mmHg 46%

    Day after tomorrow, 24 February, Monday

    Time Temperature Precipitation Wind Pressure Humidity
    00:00 +15°C° 0 mm 1 mps 763 mmHg 47%
    01:00 +14°C° 0 mm 1 mps 762 mmHg 48%
    02:00 +14°C° 0 mm 1 mps 762 mmHg 50%
    03:00 +13°C° 0 mm 1 mps 762 mmHg 51%
    04:00 +13°C° 0 mm 1 mps 761 mmHg 51%
    05:00 +13°C° 0 mm 1 mps 761 mmHg 52%
    06:00 +11°C° 0 mm 0 mps 761 mmHg 53%
    07:00 +13°C° 0 mm 0 mps 761 mmHg 47%
    08:00 +15°C° 0 mm 0 mps 761 mmHg 41%
    09:00 +17°C° 0 mm 0 mps 762 mmHg 35%
    10:00 +21°C° 0 mm 1 mps 761 mmHg 32%
    11:00 +22°C° 0 mm 1 mps 760 mmHg 29%
    12:00 +23°C° 0 mm 1 mps 760 mmHg 26%
    13:00 +24°C° 0 mm 1 mps 759 mmHg 24%
    14:00 +25°C° 0 mm 1 mps 759 mmHg 22%
    15:00 +25°C° 0 mm 2 mps 758 mmHg 20%
    16:00 +24°C° 0 mm 1 mps 758 mmHg 22%
    17:00 +23°C° 0 mm 1 mps 758 mmHg 25%
    18:00 +22°C° 0 mm 1 mps 758 mmHg 27%
    19:00 +21°C° 0 mm 1 mps 758 mmHg 29%
    20:00 +20°C° 0 mm 1 mps 758 mmHg 31%
    21:00 +19°C° 0 mm 1 mps 758 mmHg 32%
    22:00 +18°C° 0 mm 1 mps 758 mmHg 33%
    23:00 +18°C° 0 mm 1 mps 758 mmHg 34%

    25 February, Tuesday

    Time Temperature Precipitation Wind Pressure Humidity
    00:00 +15°C° 0 mm 0 mps 758 mmHg 35%
    01:00 +15°C° 0 mm 0 mps 757 mmHg 36%
    02:00 +14°C° 0 mm 0 mps 757 mmHg 37%
    03:00 +14°C° 0 mm 0 mps 756 mmHg 38%
    04:00 +14°C° 0 mm 1 mps 756 mmHg 38%
    05:00 +14°C° 0 mm 1 mps 756 mmHg 38%
    06:00 +14°C° 0 mm 1 mps 756 mmHg 38%
    07:00 +16°C° 0 mm 2 mps 756 mmHg 34%
    08:00 +18°C° 0 mm 2 mps 756 mmHg 31%
    09:00 +20°C° 0 mm 2 mps 756 mmHg 27%
    10:00 +20°C° 0 mm 2 mps 756 mmHg 25%
    11:00 +21°C° 0 mm 2 mps 755 mmHg 24%
    12:00 +23°C° 0 mm 2 mps 755 mmHg 22%
    13:00 +24°C° 0 mm 1 mps 754 mmHg 21%
    14:00 +24°C° 0 mm 1 mps 754 mmHg 20%
    15:00 +25°C° 0 mm 1 mps 753 mmHg 19%
    16:00 +24°C° 0 mm 1 mps 753 mmHg 21%
    17:00 +22°C° 0 mm 1 mps 753 mmHg 23%
    18:00 +21°C° 0 mm 1 mps 753 mmHg 26%
    19:00 +20°C° 0 mm 2 mps 753 mmHg 26%
    20:00 +19°C° 0 mm 2 mps 753 mmHg 27%
    21:00 +19°C° 0 mm 2 mps 754 mmHg 28%
    22:00 +19°C° 0 mm 3 mps 754 mmHg 32%
    23:00 +18°C° 0 mm 4 mps 753 mmHg 35%

    26 February, Wednesday

    Time Temperature Precipitation Wind Pressure Humidity
    00:00 +17°C° 0 mm 5 mps 753 mmHg 38%
    01:00 +16°C° 0 mm 5 mps 753 mmHg 40%
    02:00 +16°C° 0 mm 6 mps 753 mmHg 42%
    03:00 +16°C° 0 mm 6 mps 752 mmHg 44%
    04:00 +15°C° 0 mm 6 mps 752 mmHg 44%
    05:00 +15°C° 0 mm 6 mps 752 mmHg 44%
    06:00 +15°C° 0 mm 6 mps 752 mmHg 44%
    07:00 +16°C° 0 mm 6 mps 752 mmHg 40%
    08:00 +19°C° 0 mm 6 mps 753 mmHg 35%
    09:00 +20°C° 0 mm 6 mps 753 mmHg 31%
    10:00 +21°C° 0 mm 6 mps 753 mmHg 29%
    11:00 +22°C° 0 mm 6 mps 753 mmHg 26%
    12:00 +23°C° 0 mm 7 mps 752 mmHg 24%
    13:00 +24°C° 0 mm 7 mps 752 mmHg 23%
    14:00 +24°C° 0 mm 8 mps 751 mmHg 22%
    15:00 +24°C° 0 mm 8 mps 751 mmHg 22%
    16:00 +23°C° 0 mm 8 mps 751 mmHg 25%
    17:00 +22°C° 0 mm 8 mps 752 mmHg 29%
    18:00 +21°C° 0 mm 8 mps 752 mmHg 33%
    19:00 +20°C° 0 mm 8 mps 753 mmHg 36%
    20:00 +18°C° 0 mm 7 mps 753 mmHg 38%
    21:00 +19°C° 0 mm 6 mps 754 mmHg 41%
    22:00 +17°C° 0 mm 6 mps 754 mmHg 44%
    23:00 +16°C° 0 mm 7 mps 755 mmHg 46%

    27 February, Thursday

    Time Temperature Precipitation Wind Pressure Humidity
    00:00 +15°C° 0 mm 7 mps 755 mmHg 49%
    01:00 +15°C° 0 mm 7 mps 755 mmHg 48%
    02:00 +14°C° 0 mm 7 mps 755 mmHg 48%
    03:00 +12°C° 0 mm 7 mps 755 mmHg 47%
    04:00 +12°C° 0 mm 7 mps 756 mmHg 48%
    05:00 +11°C° 0 mm 6 mps 756 mmHg 50%
    06:00 +11°C° 0 mm 6 mps 756 mmHg 51%
    07:00 +13°C° 0 mm 5 mps 757 mmHg 45%
    08:00 +14°C° 0 mm 5 mps 758 mmHg 39%
    09:00 +16°C° 0 mm 5 mps 758 mmHg 34%
    10:00 +18°C° 0 mm 4 mps 758 mmHg 30%
    11:00 +19°C° 0 mm 4 mps 758 mmHg 27%
    12:00 +20°C° 0 mm 3 mps 758 mmHg 23%
    13:00 +21°C° 0 mm 3 mps 758 mmHg 22%
    14:00 +21°C° 0 mm 3 mps 757 mmHg 22%
    15:00 +21°C° 0 mm 2 mps 757 mmHg 21%
    16:00 +20°C° 0 mm 2 mps 757 mmHg 24%
    17:00 +19°C° 0 mm 2 mps 758 mmHg 27%
    18:00 +18°C° 0 mm 2 mps 758 mmHg 29%
    19:00 +17°C° 0 mm 2 mps 758 mmHg 32%
    20:00 +17°C° 0 mm 2 mps 759 mmHg 34%
    21:00 +16°C° 0 mm 2 mps 759 mmHg 37%
    22:00 +15°C° 0 mm 2 mps 759 mmHg 38%
    23:00 +15°C° 0 mm 2 mps 759 mmHg 39%
    Show more